Regional Weather Roundup
Issued by NWS Cleveland, OH

Home | Current Version | Previous Version | Text Only | Print | Product List | Glossary Off
Versions: 1 2 3 4 5 6 7 8 9 10 11 12 13 14 15 16 17 18 19 20 21 22 23 24 25 26 27 28 29 30 31 32 33 34 35 36 37 38 39 40 41 42 43 44 45 46 47 48 49 50

000
ASUS41 KCLE 271302
RWRCLE
OHIO REGIONAL WEATHER ROUNDUP
NATIONAL WEATHER SERVICE CLEVELAND, OH
800 AM EST MON FEB 27 2017

NOTE: "FAIR" INDICATES FEW OR NO CLOUDS BELOW 12,000 FEET WITH NO
SIGNIFICANT WEATHER AND/OR OBSTRUCTIONS TO VISIBILITY.

OHZ001>008-015>018-024>027-034-035-043-044-271400-
   NORTHWEST OHIO

CITY           SKY/WX    TMP DP  RH WIND       PRES   REMARKS
DEFIANCE       CLEAR     29  20  69 S6        30.21R WCI  23
FINDLAY        CLOUDY    37  26  64 S8        30.21R
TOLEDO EXPRESS CLEAR     30  22  72 S5        30.20R WCI  25
TOLEDO EXEC    CLEAR     33  23  66 S8        30.22R WCI  26
LIMA           CLOUDY    38  28  67 S8        30.22R
$$

OHZ009>014-019>023-028>033-038-089-271400-
   NORTHEAST OHIO

CITY           SKY/WX    TMP DP  RH WIND       PRES   REMARKS
CLE-HOPKINS    CLOUDY    39  19  44 S9        30.26R
CLE-LAKEFRONT  PTCLDY    42  19  39 SW15G24   30.23R
CUY CO. ARPT   MOCLDY    39  19  45 S12       30.24R
LORAIN-ELYRIA  CLOUDY    34  20  56 SW5       30.24R WCI  30
ASHTABULA      PTCLDY    34  18  52 S7        30.25R WCI  28
AKRON-CANTON   CLOUDY    37  21  52 SW6       30.25R
WOOSTER        CLOUDY    36  21  54 SW8       30.25R
MANSFIELD      CLOUDY    39  23  52 S7        30.23R
YOUNGSTOWN     CLOUDY    34  17  50 S7        30.24S WCI  28
$$

OHZ042-051>053-060>062-070>072-077>081-271400-
  SOUTHWEST OHIO

CITY           SKY/WX    TMP DP  RH WIND       PRES   REMARKS
CINC-COVINGTON LGT RAIN  41  37  86 S8        30.24R
CINC-LUNKEN    LGT RAIN  42  37  82 S8        30.27S
HAMILTON       CLOUDY    44  34  67 CALM      30.26R
DAYTON         CLOUDY    40  22  48 S6        30.24R
WRIGHT-PAT AFB CLOUDY    41  22  47 SE3       30.24R
DAYTON GENERAL CLOUDY    42  27  55 S8        30.23R
WILMINGTON     LGT RAIN  40  34  79 S8        30.25R
$$

OHZ036-037-039>041-045>050-054>059-063>069-073>076-082>088-271400-
  CENTRAL AND SOUTHEAST OHIO

CITY           SKY/WX    TMP DP  RH WIND       PRES   REMARKS
COLUMBUS       CLOUDY    42  21  43 S3        30.25S
OSU AIRPORT    CLOUDY    40  23  50 S7        30.25S
BOLTON FIELD   CLOUDY    37  27  65 SE5       30.25F
RICKENBACK AFB CLOUDY    39  23  52 S9        30.26S
NEWARK         CLOUDY    40  22  48 CALM      30.27R
MARION         CLOUDY    40  25  55 SW8       30.23S
LANCASTER      CLOUDY    43  21  41 S7        30.27R
ZANESVILLE     CLOUDY    39  19  44 S7        30.28R
NEW PHILLY     NOT AVBL
$$



USA.gov is the U.S. government's official web portal to all federal, state and local government web resources and services.